Location: Unspecified
(0.0000°N, 0.0000°E)
Time: 10:07:30
(UTC+00:00)

Courier 1B Rocket - All Passes

Search period start: 01 September 2015 00:00
Search period end: 11 September 2015 00:00
Orbit: 921 x 1202 km, 28.2° (Epoch: 30 August)

Date Brightness Start Highest point End Pass type
(mag) Time Alt. Az. Time Alt. Az. Time Alt. Az.
01 Sep - 01:25:37 10° NNW 01:31:52 27° NNE 01:38:19 10° E visible
01 Sep - 03:18:10 10° WNW 03:26:01 83° NNE 03:33:48 10° ESE visible
01 Sep - 05:13:11 10° W 05:20:02 32° SSW 05:26:34 10° SSE visible
01 Sep - 07:13:45 10° SSW 07:14:48 10° SSW 07:15:34 10° SSW daylight
01 Sep - 12:57:32 10° SSW 13:01:33 17° SSE 13:05:39 10° ESE daylight
01 Sep - 14:49:08 10° SW 14:55:20 64° SSE 15:01:34 10° ENE daylight
01 Sep - 16:43:15 10° W 16:48:49 33° NNW 16:54:29 10° NE daylight
02 Sep - 00:25:22 10° NNW 00:30:20 19° NNE 00:35:36 10° ENE night (unlit)
02 Sep - 02:17:07 10° NW 02:24:41 57° NNE 02:32:22 10° ESE visible
02 Sep - 04:11:11 10° W 04:18:40 47° SSW 04:25:58 10° SE visible
02 Sep - 06:08:47 10° WSW 06:13:09 15° SSW 06:17:10 10° S daylight
02 Sep - 11:57:59 10° S 12:00:11 12° SSE 12:02:35 10° SE daylight
02 Sep - 13:48:26 10° SW 13:54:21 41° SSE 14:00:12 10° E daylight
02 Sep - 15:41:45 10° WSW 15:47:47 50° NNW 15:53:53 10° NE daylight
02 Sep - 17:38:25 10° NW 17:41:46 14° NNW 17:44:59 10° N daylight
02 Sep - 23:25:44 10° N 23:28:43 13° NNE 23:32:02 10° NE night (unlit)
03 Sep - 01:16:21 10° NW 01:23:20 39° NNE 01:30:34 10° E night (unlit)
03 Sep - 03:09:33 10° WNW 03:17:19 68° SSW 03:25:04 10° SE visible
03 Sep - 05:05:40 10° WSW 05:11:35 22° SSW 05:17:12 10° SSE visible
03 Sep - 12:47:56 10° SSW 12:53:16 27° SSE 12:58:32 10° E daylight
03 Sep - 14:40:31 10° WSW 14:46:50 79° NNW 14:53:05 10° ENE daylight
03 Sep - 16:35:51 10° WNW 16:40:29 21° NNW 16:45:04 10° NNE daylight
04 Sep - 00:15:51 10° NNW 00:21:56 27° NNE 00:28:21 10° E night (unlit)
04 Sep - 02:08:17 10° WNW 02:16:00 84° NNE 02:23:54 10° ESE visible
04 Sep - 04:03:13 10° W 04:10:05 32° SSW 04:16:48 10° SSE visible
04 Sep - 06:03:10 10° SSW 06:05:00 11° SSW 06:06:31 10° S daylight
04 Sep - 11:47:38 10° SSW 11:52:02 19° SSE 11:56:26 10° ESE daylight
04 Sep - 13:39:31 10° SW 13:45:53 67° SSE 13:52:05 10° ENE daylight
04 Sep - 15:33:51 10° W 15:39:21 31° NNW 15:44:48 10° NNE daylight
04 Sep - 23:15:45 10° NNW 23:20:28 18° NNE 23:25:34 10° ENE night (unlit)
05 Sep - 01:07:19 10° NW 01:14:42 58° NNE 01:22:24 10° ESE night (unlit)
05 Sep - 03:01:17 10° W 03:08:41 46° SSW 03:16:05 10° SE visible
05 Sep - 04:58:46 10° WSW 05:03:16 16° SSW 05:07:29 10° SSE visible
05 Sep - 10:47:43 10° S 10:50:38 13° SSE 10:53:41 10° SE daylight
05 Sep - 12:38:42 10° SW 12:44:53 43° SSE 12:50:49 10° E daylight
05 Sep - 14:32:13 10° WSW 14:38:20 49° NNW 14:44:19 10° NE daylight
05 Sep - 16:29:16 10° NW 16:32:15 13° NNW 16:35:04 10° N daylight
05 Sep - 22:16:21 10° N 22:18:56 12° NNE 22:21:50 10° NE night (unlit)
06 Sep - 00:06:38 10° NW 00:13:24 39° NNE 00:20:33 10° E night (unlit)
06 Sep - 01:59:44 10° WNW 02:07:19 67° SSW 02:15:07 10° SE visible
06 Sep - 03:55:45 10° WSW 04:01:39 22° SSW 04:07:21 10° SSE visible
06 Sep - 11:38:03 10° SSW 11:43:45 29° SSE 11:49:14 10° E daylight
06 Sep - 13:30:52 10° WSW 13:37:22 77° NNW 13:43:37 10° NE daylight
06 Sep - 15:26:27 10° WNW 15:31:00 20° NNW 15:35:24 10° NNE daylight
06 Sep - 23:06:16 10° NNW 23:12:04 27° NNE 23:18:18 10° E night (unlit)
07 Sep - 00:58:33 10° WNW 01:06:01 86° NNE 01:13:53 10° ESE night (unlit)
07 Sep - 02:53:23 10° W 03:00:07 31° SSW 03:06:50 10° SSE visible
07 Sep - 04:53:05 10° SSW 04:55:08 11° SSW 04:56:53 10° S visible
07 Sep - 10:37:34 10° SSW 10:42:27 20° SSE 10:47:16 10° ESE daylight
07 Sep - 12:29:44 10° SW 12:36:24 70° SSE 12:42:42 10° ENE daylight
07 Sep - 14:24:18 10° W 14:29:53 31° NNW 14:35:15 10° NNE daylight
07 Sep - 22:06:17 10° NNW 22:10:41 18° NNE 22:15:29 10° ENE night (unlit)
07 Sep - 23:57:40 10° NW 00:04:46 59° NNE 00:12:21 10° ESE night (unlit)
08 Sep - 01:51:31 10° W 01:58:42 45° SSW 02:06:04 10° SE visible
08 Sep - 03:48:55 10° SW 03:53:22 15° SSW 03:57:35 10° SSE visible
08 Sep - 09:37:22 10° S 09:40:59 15° SSE 09:44:42 10° SE daylight
08 Sep - 11:28:48 10° SW 11:35:20 46° SSE 11:41:30 10° E daylight
08 Sep - 13:22:32 10° WSW 13:28:51 48° NNW 13:34:52 10° NE daylight
08 Sep - 15:19:55 10° NW 15:22:47 13° NNW 15:25:24 10° N daylight
08 Sep - 21:07:11 10° N 21:09:13 12° NNE 21:11:34 10° NE visible
08 Sep - 22:57:05 10° NW 23:03:32 39° NNE 23:10:29 10° E night (unlit)
09 Sep - 00:50:04 10° WNW 00:57:21 65° SSW 01:05:03 10° SE night (unlit)
09 Sep - 02:46:00 10° WSW 02:51:43 22° SSW 02:57:21 10° SSE visible
09 Sep - 08:38:02 10° S 08:39:22 11° SSE 08:40:55 10° SSE daylight
09 Sep - 10:28:01 10° SSW 10:34:09 31° SSE 10:39:59 10° E daylight
09 Sep - 12:21:03 10° WSW 12:27:52 75° NNW 12:34:14 10° NE daylight
09 Sep - 14:16:53 10° WNW 14:21:31 20° NNW 14:25:53 10° NNE daylight
09 Sep - 21:56:48 10° NNW 22:02:17 26° NNE 22:08:14 10° E night (unlit)
09 Sep - 23:48:57 10° WNW 23:56:07 88° NNE 00:03:48 10° ESE night (unlit)
10 Sep - 01:43:43 10° W 01:50:11 30° SSW 01:56:46 10° SSE night (unlit)
10 Sep - 03:43:24 10° SSW 03:45:15 11° SSW 03:46:50 10° S visible
10 Sep - 09:27:24 10° SSW 09:32:47 22° SSE 09:38:02 10° ESE daylight
10 Sep - 11:19:49 10° SW 11:26:50 73° SSE 11:33:21 10° ENE daylight
10 Sep - 13:14:35 10° W 13:20:22 31° NNW 13:25:49 10° NNE daylight
10 Sep - 20:56:54 10° NNW 21:00:59 17° NNE 21:05:26 10° ENE visible
10 Sep - 22:48:09 10° NW 22:54:56 59° NNE 23:02:16 10° ESE night (unlit)
